RADUGA-1M 3

Last updated on March 8, 2021, 6:42 a.m. UTC

1 39375U 13062A   21065.35743795  .00000140  00000-0  00000+0 0  9990
2 39375   1.0742  95.1477 0001948 282.0479 310.8277  1.00273938 26784
UTC
Height (km)
Latitude
Longitude
Inclination
Orbital Period
UTC large
Height (km)
Speed (km/s)
/
Latitude / Longitude
Inclination (degrees)
Orbital Period (minutes)
Azimuth
Elevation
Range (km)
Doppler Factor
iOS Compass Heading
iOS Angle

Next 30 passes for location: Hong Kong

Rise time Rise Azimuth (degrees) Set time Set Azimuth (degrees) Duration Max altitude (degrees)

No matching passes for this satellites